Regional Weather Roundup
Issued by NWS Charleston, SC

Current Version | Previous Version | Graphics & Text | Print | Product List | Glossary On
Versions: 1 2 3 4 5 6 7 8 9 10 11 12 13 14 15 16 17 18 19 20 21 22 23 24 25 26 27 28 29 30 31 32 33 34 35 36 37 38 39 40 41 42 43 44 45 46 47 48 49 50
000
ASUS42 KCHS 170127
RWRCHS

Regional Weather Roundup
National Weather Service Charleston SC
800 PM EST SAT DEC 16 2017

NOTE: "fair" indicates few or no clouds below 12,000 feet with no
significant weather and/or obstructions to visibility.

Not all stations are quality controlled. Use data with caution,
especially dewpoint observations.

SCZ027-030-031-034>040-042>050-170200-
...Southeast South Carolina...

CITY           SKY/WX    TMP DP  RH WIND       PRES   REMARKS
N Charleston   CLOUDY    43  38  82 SW5       30.30R
Waterfront Prk   N/A     47  42  83 CALM      30.14R
Mount Pleasant FAIR      37  36  93 CALM      30.30R
Johns Island   FAIR      39  37  93 CALM      30.31R
Pinopolis        N/A     45  37  76 VRB3      30.21R
Moncks Corner  FAIR      36  32  87 CALM      30.30R
Summerville    FAIR      37  34  87 CALM      30.31R
Beaufort MCAS  CLEAR     41  39  93 CALM      30.31R
Beaufort Arpt  FAIR      41  39  93 CALM      30.30S FOG
Hilton Head Is CLEAR     39  37  93 CALM      30.32R
Walterboro     PTCLDY    37  34  87 CALM      30.31S
Allendale      FAIR      37  32  81 CALM      30.29S

...Southern Midlands and Pee Dee...

CITY           SKY/WX    TMP DP  RH WIND       PRES   REMARKS
Georgetown     FAIR      34  32  93 CALM      30.31R
Kingstree      FAIR      34  32  93 CALM      30.29R
Orangeburg     CLEAR     37  32  82 CALM      30.28R
Barnwell         N/A     36  32  87 CALM      30.29R
Aiken          FAIR      34  28  80 CALM      30.31R
Manning        FAIR      34  32  93 MISG      30.28F
Columbia       CLEAR     38  33  82 CALM      30.27R
Sumter         CLEAR     40  30  69 CALM      30.26R
Florence       PTCLDY    38  31  76 CALM      30.28R
Myrtle Beach   CLEAR     39  34  82 CALM      30.30S
N Myrtle Beach CLOUDY    38  34  85 CALM      30.28S

$$

GAZ063-065-086>088-099>101-113>116-118-119-134>141-150-170200-
...Southeast Georgia...

CITY           SKY/WX    TMP DP  RH WIND       PRES   REMARKS
Savannah Arpt  CLEAR     41  35  79 CALM      30.31R
Hunter AAF       N/A     41  36  81 CALM        N/A
Fort Stewart   PTCLDY    41  37  85 CALM        N/A
Statesboro     CLEAR     37  32  84 CALM      30.29S
Sylvania       CLOUDY    38  36  94 CALM      30.30S
Claxton        FAIR      38  36  95 CALM      30.30S

...CSRA, Central and far Southeast Georgia...

CITY           SKY/WX    TMP DP  RH WIND       PRES   REMARKS
Thomson        CLOUDY    34  29  85 CALM      30.32F
Augusta-Bush   CLEAR     35  29  78 CALM      30.28S
Augusta-Daniel CLEAR     46  27  47 CALM      30.28S
Swainsboro     FAIR      36  36 100 CALM      30.30S
Vidalia        CLEAR     41  36  81 CALM      30.29S
Eastman        FAIR      38  30  73 CALM      30.32R
Hazlehurst     FAIR      42  33  71 CALM      30.29R
Alma           PTCLDY    40  36  86 CALM      30.28S
Waycross       PTCLDY    43  36  77 CALM      30.29R
Jesup          FAIR      43  36  75 CALM      30.29R
Baxley         FAIR      37  37 100 CALM      30.29R
Brunswick      PTCLDY    37  36  93 CALM      30.30F FOG
Saint Simons   CLEAR     46  40  79 CALM      30.29R

$$

SCZ027-028-034-036>038-045-046-048>050-GAZ119-141-170200-
...Lake and Supplemental Coastal Observations...

STATION/POSITION TIME  TEMP    WIND        PRES    WAVE   SWELL
                       AIR SEA DIR/SP/G            HT/PER HT/PER/DIR
                 (UTC) (F)     (DEG/KT/KT) (MB)    (FT/S) (FT/S/D)
Winyah Bay       0045   39        CALM     1026.0S
Lake Murray      0020   45      CALM  /  1 1024.4
ACE Basin NERRS  0045   40        CALM     1026.0R
Fort Pulaski     0100   47 54   CALM  /  1 1026.4
Sapelo Island    0100   41      50/  2     1026.0

$$

ANZ835-935-AMZ111-154-330-350-352-354-370-450-454-472-170200-
...C-MAN and Buoy Observations...

STATION/POSITION TIME  TEMP    WIND        PRES    WAVE   SWELL
                       AIR SEA DIR/SP/G            HT/PER HT/PER/DIR
                 (UTC) (F)     (DEG/KT/KT) (MB)    (FT/S) (FT/S/D)
Buoy 41004       0110   57 72   CALM  /  2 1025.0
Buoy 41008       0050   53 58   20/  2/  4 1025.9R   1/11   2/100/11
Folly Beach CMAN 0100   49     240/  1/  2 1026.4R
Capers Nearshore 0108   47 55  150/  2/  4 1025.7R


STATION/POSITION TIME  TEMP    WIND        PRES    WAVE   SWELL
                       AIR SEA DIR/SP/G            HT/PER HT/PER/DIR
                 (UTC) (F)     (DEG/KT/KT) (MB)    (FT/S) (FT/S/D)
5E St. Marys GA  0100      62                N/A     2/11
Frying Pan Buoy  0110   53 68  260/  6/ 10 1025.2
Buoy 41025       0110   52 72  280/ 14/ 17 1025.1
Cape Lookout NC  0100          270/  6/  7 1025.3R
Buoy 41002       0050   62 74  330/  6/ 10 1024.7R   5/ 7   5/340/ 7
Buoy 41010       NOT AVBL
St Augustine FL  0100   58 63   20/ 10/ 11 1025.5R


$$



USA.gov is the U.S. government's official web portal to all federal, state and local government web resources and services.